Location: Staunton
(38.1490°N, 79.0720°W)
Time: 23:52:52
(UTC-04:00)

ISS - Pass Details

Date: 04 May 2021
Orbit: 417 x 422 km, 51.6° (Epoch: 18 May)

Event Time Altitude Azimuth Distance (km) Brightness Sun altitude
Exits shadow 04:31:49 - 312° (NW) 1,665 -0.8 -18.5°
Reaches altitude 10° 04:32:46 10° 326° (NW) 1,503 -0.9 -18.4°
Maximum altitude 04:33:52 11° 345° (NNW) 1,432 -0.8 -18.2°
Drops below altitude 10° 04:34:57 10° 4° (N) 1,505 -0.4 -18.1°
Sets 04:38:24 0° 41° (NE) 2,372 1.7 -17.5°
